�������l�o���
Date,Time,MP-1(��Sv/h),MP-2(��Sv/h),MP-3(��Sv/h),MP-4(��Sv/h),MP-5(��Sv/h),MP-6(��Sv/h),MP-7(��Sv/h),MP-8(��Sv/h),����,����(m/s),���J
2019/11/17,00:00,0.725,1.048,0.690,1.293,0.916,0.417,0.723,0.684,��,4.1,��
2019/11/17,00:10,0.728,1.046,0.693,1.296,0.916,0.416,0.724,0.684,���쐼,2.5,��
2019/11/17,00:20,0.728,1.047,0.691,1.293,0.917,0.415,0.723,0.685,���쐼,2.1,��
2019/11/17,00:30,0.726,1.048,0.690,1.295,0.916,0.416,0.723,0.684,��,2.1,��
2019/11/17,00:40,0.726,1.047,0.690,1.295,0.914,0.415,0.723,0.685,�k��,0.6,��
2019/11/17,00:50,0.728,1.047,0.690,1.296,0.915,0.416,0.724,0.686,���k��,0.8,��
2019/11/17,01:00,0.727,1.048,0.690,1.295,0.915,0.415,0.724,0.684,-,CALM,��
2019/11/17,01:10,0.727,1.046,0.689,1.295,0.917,0.414,0.723,0.683,�k��,1.5,��
2019/11/17,01:20,0.725,1.046,0.692,1.296,0.916,0.417,0.724,0.683,�k��,1.9,��
2019/11/17,01:30,0.727,1.046,0.691,1.294,0.917,0.415,0.723,0.683,���k��,2.5,��
2019/11/17,01:40,0.727,1.045,0.692,1.295,0.916,0.417,0.723,0.684,���k��,3.2,��
2019/11/17,01:50,0.726,1.045,0.692,1.296,0.916,0.416,0.724,0.684,���k��,3.8,��
2019/11/17,02:00,0.726,1.047,0.690,1.294,0.915,0.415,0.724,0.684,���k��,3.8,��
2019/11/17,02:10,0.729,1.047,0.691,1.294,0.917,0.415,0.723,0.685,�k��,4.2,��
2019/11/17,02:20,0.726,1.045,0.691,1.297,0.915,0.417,0.724,0.684,�k��,4.3,��
2019/11/17,02:30,0.726,1.047,0.691,1.298,0.916,0.417,0.724,0.684,�k��,4.6,��
2019/11/17,02:40,0.728,1.047,0.692,1.295,0.916,0.415,0.724,0.685,�k��,3.1,��
2019/11/17,02:50,0.727,1.048,0.693,1.295,0.917,0.416,0.723,0.684,�k��,1.1,��
2019/11/17,03:00,0.726,1.048,0.690,1.296,0.916,0.415,0.725,0.685,�쐼,1.0,��
2019/11/17,03:10,0.726,1.048,0.691,1.296,0.915,0.416,0.723,0.686,�k�k��,0.7,��
2019/11/17,03:20,0.726,1.044,0.691,1.295,0.914,0.415,0.726,0.684,�쓌,0.7,��
2019/11/17,03:30,0.725,1.047,0.691,1.295,0.916,0.416,0.725,0.684,��,1.0,��
2019/11/17,03:40,0.727,1.048,0.689,1.296,0.917,0.416,0.723,0.683,-,CALM,��
2019/11/17,03:50,0.726,1.046,0.690,1.295,0.915,0.416,0.725,0.685,-,CALM,��
2019/11/17,04:00,0.727,1.047,0.691,1.296,0.916,0.414,0.724,0.686,���k��,1.1,��
2019/11/17,04:10,0.726,1.043,0.691,1.295,0.915,0.416,0.724,0.684,�k�k��,0.9,��
2019/11/17,04:20,0.724,1.048,0.690,1.295,0.914,0.415,0.723,0.684,�k,1.8,��
2019/11/17,04:30,0.726,1.046,0.689,1.295,0.915,0.415,0.722,0.683,�k�k��,1.0,��
2019/11/17,04:40,0.724,1.044,0.692,1.294,0.915,0.416,0.723,0.684,�k,1.7,��
2019/11/17,04:50,0.725,1.046,0.690,1.295,0.914,0.416,0.722,0.685,�k�k��,2.1,��
2019/11/17,05:00,0.726,1.046,0.691,1.296,0.915,0.416,0.723,0.683,�k,2.3,��
2019/11/17,05:10,0.724,1.045,0.689,1.294,0.915,0.415,0.722,0.686,�k,2.6,��
2019/11/17,05:20,0.725,1.043,0.690,1.293,0.914,0.416,0.724,0.684,�k�k��,2.6,��
2019/11/17,05:30,0.725,1.044,0.691,1.296,0.915,0.415,0.722,0.684,�k�k��,1.9,��
2019/11/17,05:40,0.725,1.044,0.691,1.294,0.914,0.416,0.722,0.686,�k�k��,0.7,��
2019/11/17,05:50,0.725,1.045,0.690,1.295,0.916,0.415,0.722,0.684,�k��,1.7,��
2019/11/17,06:00,0.725,1.043,0.690,1.295,0.913,0.415,0.724,0.684,���쐼,0.7,��
2019/11/17,06:10,0.724,1.045,0.692,1.295,0.915,0.415,0.723,0.684,��,1.0,��
2019/11/17,06:20,0.725,1.045,0.690,1.295,0.914,0.416,0.722,0.683,���쐼,1.0,��
2019/11/17,06:30,0.726,1.043,0.690,1.296,0.913,0.415,0.723,0.683,���k��,0.6,��
2019/11/17,06:40,0.725,1.044,0.690,1.295,0.916,0.415,0.722,0.685,���k��,0.6,��
2019/11/17,06:50,0.724,1.046,0.690,1.293,0.914,0.416,0.722,0.683,���k��,1.8,��
2019/11/17,07:00,0.723,1.044,0.688,1.294,0.914,0.416,0.723,0.685,���k��,4.4,��
2019/11/17,07:10,0.725,1.045,0.690,1.294,0.915,0.414,0.721,0.683,���k��,5.2,��
2019/11/17,07:20,0.723,1.045,0.690,1.298,0.916,0.416,0.722,0.684,���k��,3.8,��
2019/11/17,07:30,0.727,1.045,0.691,1.294,0.914,0.415,0.722,0.683,��,2.8,��
2019/11/17,07:40,0.726,1.048,0.691,1.297,0.914,0.416,0.724,0.683,��,3.2,��
2019/11/17,07:50,0.726,1.044,0.690,1.293,0.914,0.415,0.722,0.684,���k��,2.4,��
2019/11/17,08:00,0.725,1.049,0.691,1.296,0.913,0.415,0.723,0.685,��,1.2,��
2019/11/17,08:10,0.726,1.046,0.691,1.295,0.915,0.416,0.726,0.686,�k��,2.5,��
2019/11/17,08:20,0.728,1.047,0.691,1.295,0.913,0.416,0.725,0.686,��,2.7,��
2019/11/17,08:30,0.728,1.046,0.689,1.295,0.915,0.414,0.723,0.686,���쐼,2.3,��
2019/11/17,08:40,0.727,1.045,0.692,1.297,0.915,0.415,0.724,0.685,���쐼,2.6,��
2019/11/17,08:50,0.725,1.047,0.691,1.297,0.914,0.415,0.724,0.684,���쐼,2.4,��
2019/11/17,09:00,0.725,1.044,0.691,1.296,0.917,0.415,0.724,0.685,���k��,1.6,��
2019/11/17,09:10,0.727,1.045,0.689,1.296,0.914,0.415,0.722,0.685,�k��,3.6,��
2019/11/17,09:20,0.726,1.045,0.690,1.297,0.916,0.416,0.722,0.685,�k��,6.9,��
2019/11/17,09:30,0.726,1.045,0.690,1.297,0.916,0.415,0.722,0.686,�k��,6.3,��
2019/11/17,09:40,0.727,1.045,0.691,1.297,0.918,0.417,0.723,0.685,�k��,9.9,��
2019/11/17,09:50,0.726,1.044,0.691,1.296,0.917,0.416,0.722,0.683,�k��,7.7,��
2019/11/17,10:00,0.727,1.045,0.690,1.296,0.918,0.415,0.722,0.684,�k��,8.8,��
2019/11/17,10:10,0.728,1.048,0.692,1.297,0.916,0.415,0.723,0.683,�k��,5.8,��
2019/11/17,10:20,0.728,1.046,0.691,1.297,0.915,0.414,0.723,0.685,�k��,10.1,��
2019/11/17,10:30,0.728,1.046,0.692,1.296,0.916,0.417,0.722,0.685,�k��,10.5,��
2019/11/17,10:40,0.726,1.047,0.690,1.298,0.915,0.414,0.721,0.685,�k��,10.2,��
2019/11/17,10:50,0.726,1.047,0.691,1.298,0.916,0.414,0.723,0.686,���k��,8.8,��
2019/11/17,11:00,0.727,1.048,0.692,1.298,0.919,0.415,0.723,0.687,�k��,11.3,��
2019/11/17,11:10,0.727,1.049,0.692,1.297,0.917,0.414,0.722,0.686,�k��,8.9,��
2019/11/17,11:20,0.725,1.047,0.692,1.301,0.916,0.413,0.724,0.684,�k��,9.6,��
2019/11/17,11:30,0.728,1.048,0.691,1.301,0.915,0.414,0.724,0.685,�k��,8.3,��
2019/11/17,11:40,0.729,1.050,0.690,1.299,0.915,0.413,0.724,0.684,�k��,6.1,��
2019/11/17,11:50,0.729,1.052,0.691,1.300,0.917,0.415,0.725,0.685,�k��,8.8,��
2019/11/17,12:00,0.726,1.052,0.692,1.299,0.916,0.415,0.725,0.686,�k��,8.5,��
2019/11/17,12:10,0.726,1.050,0.693,1.298,0.916,0.416,0.725,0.687,�k��,9.7,��
2019/11/17,12:20,0.727,1.052,0.692,1.300,0.918,0.413,0.725,0.683,�k��,8.8,��
2019/11/17,12:30,0.727,1.052,0.691,1.298,0.919,0.415,0.723,0.683,�k�k��,8.0,��
2019/11/17,12:40,0.726,1.051,0.691,1.300,0.917,0.417,0.725,0.682,�k�k��,8.0,��
2019/11/17,12:50,0.727,1.051,0.691,1.301,0.918,0.416,0.724,0.683,�k��,7.7,��
2019/11/17,13:00,0.727,1.051,0.692,1.302,0.918,0.415,0.725,0.683,�k�k��,6.1,��
2019/11/17,13:10,0.728,1.050,0.692,1.300,0.916,0.414,0.722,0.683,�k�k��,7.7,��
2019/11/17,13:20,0.729,1.052,0.690,1.299,0.918,0.414,0.723,0.684,�k�k��,7.4,��
2019/11/17,13:30,0.727,1.053,0.692,1.300,0.917,0.414,0.722,0.683,�k�k��,8.6,��
2019/11/17,13:40,0.727,1.052,0.691,1.302,0.917,0.414,0.724,0.683,�k��,8.0,��
2019/11/17,13:50,0.727,1.051,0.691,1.305,0.917,0.414,0.724,0.683,�k��,8.0,��
2019/11/17,14:00,0.727,1.051,0.693,1.303,0.919,0.415,0.725,0.683,�k��,8.3,��
2019/11/17,14:10,0.728,1.052,0.691,1.301,0.919,0.416,0.723,0.683,�k��,8.0,��
2019/11/17,14:20,0.728,1.052,0.695,1.302,0.920,0.414,0.725,0.683,�k��,7.2,��
2019/11/17,14:30,0.728,1.050,0.692,1.299,0.916,0.414,0.724,0.682,�k��,6.9,��
2019/11/17,14:40,0.728,1.049,0.693,1.300,0.919,0.416,0.723,0.683,�k��,7.4,��
2019/11/17,14:50,0.728,1.053,0.693,1.300,0.918,0.414,0.726,0.684,�k��,6.9,��
2019/11/17,15:00,0.728,1.053,0.694,1.302,0.919,0.415,0.724,0.683,�k��,7.1,��
2019/11/17,15:10,0.728,1.054,0.694,1.300,0.917,0.414,0.724,0.683,�k��,5.5,��
2019/11/17,15:20,0.728,1.057,0.694,1.302,0.919,0.414,0.723,0.685,�k��,4.9,��
2019/11/17,15:30,0.728,1.053,0.692,1.301,0.917,0.413,0.724,0.685,�k��,3.9,��
2019/11/17,15:40,0.726,1.054,0.693,1.300,0.919,0.415,0.722,0.686,�k�k��,4.0,��
2019/11/17,15:50,0.725,1.056,0.693,1.301,0.915,0.415,0.723,0.685,�k��,6.0,��
2019/11/17,16:00,0.728,1.054,0.693,1.303,0.917,0.415,0.723,0.686,�k��,5.8,��
2019/11/17,16:10,0.727,1.052,0.693,1.301,0.917,0.415,0.723,0.686,�k�k��,5.5,��
2019/11/17,16:20,0.727,1.056,0.693,1.301,0.918,0.415,0.725,0.685,�k�k��,6.6,��
2019/11/17,16:30,0.729,1.054,0.692,1.301,0.919,0.414,0.723,0.687,�k��,5.3,��
2019/11/17,16:40,0.726,1.053,0.694,1.299,0.919,0.415,0.723,0.685,��,1.8,��
2019/11/17,16:50,0.728,1.055,0.693,1.302,0.918,0.413,0.724,0.685,�k��,3.4,��
2019/11/17,17:00,0.728,1.054,0.693,1.300,0.922,0.413,0.723,0.686,��,3.2,��
2019/11/17,17:10,0.728,1.052,0.695,1.302,0.919,0.414,0.724,0.686,���k��,3.0,��
2019/11/17,17:20,0.728,1.054,0.694,1.302,0.920,0.413,0.723,0.685,�k�k��,4.4,��
2019/11/17,17:30,0.728,1.057,0.693,1.300,0.921,0.414,0.724,0.684,�k��,4.6,��
2019/11/17,17:40,0.726,1.054,0.693,1.302,0.922,0.415,0.722,0.684,�k�k��,5.2,��
2019/11/17,17:50,0.729,1.053,0.694,1.302,0.920,0.414,0.723,0.684,�k�k��,4.0,��
2019/11/17,18:00,0.727,1.054,0.694,1.302,0.920,0.413,0.722,0.684,�k��,3.4,��
2019/11/17,18:10,0.727,1.054,0.692,1.302,0.923,0.413,0.723,0.685,�k��,3.5,��
2019/11/17,18:20,0.728,1.055,0.694,1.300,0.919,0.413,0.723,0.684,�k��,3.4,��
2019/11/17,18:30,0.730,1.056,0.694,1.302,0.920,0.413,0.723,0.685,�k��,2.8,��
2019/11/17,18:40,0.727,1.054,0.693,1.301,0.920,0.415,0.723,0.685,�k��,3.3,��
2019/11/17,18:50,0.727,1.052,0.694,1.300,0.919,0.414,0.723,0.683,�k��,4.1,��
2019/11/17,19:00,0.729,1.052,0.693,1.301,0.921,0.415,0.723,0.684,�k��,3.8,��
2019/11/17,19:10,0.728,1.052,0.693,1.302,0.920,0.413,0.723,0.685,�k,3.6,��
2019/11/17,19:20,0.728,1.054,0.694,1.302,0.921,0.413,0.724,0.685,�k�k��,5.2,��
2019/11/17,19:30,0.729,1.053,0.692,1.303,0.921,0.414,0.725,0.683,�k,4.5,��
2019/11/17,19:40,0.729,1.054,0.691,1.301,0.920,0.412,0.723,0.685,�k�k��,5.5,��
2019/11/17,19:50,0.728,1.052,0.693,1.300,0.921,0.414,0.723,0.686,�k�k��,4.4,��
2019/11/17,20:00,0.728,1.055,0.691,1.302,0.919,0.414,0.722,0.684,�k�k��,3.8,��
2019/11/17,20:10,0.727,1.053,0.693,1.301,0.920,0.413,0.722,0.683,�k�k��,2.6,��
2019/11/17,20:20,0.725,1.053,0.694,1.301,0.921,0.412,0.723,0.685,�k��,3.3,��
2019/11/17,20:30,0.727,1.052,0.693,1.302,0.920,0.414,0.722,0.685,�k��,3.2,��
2019/11/17,20:40,0.729,1.053,0.693,1.301,0.918,0.414,0.723,0.685,�k��,3.1,��
2019/11/17,20:50,0.728,1.052,0.692,1.300,0.919,0.414,0.724,0.684,�k�k��,2.3,��
2019/11/17,21:00,0.726,1.052,0.693,1.301,0.921,0.412,0.722,0.684,�k�k��,2.4,��
2019/11/17,21:10,0.729,1.053,0.692,1.300,0.921,0.414,0.723,0.684,�k�k��,1.5,��
2019/11/17,21:20,0.728,1.052,0.693,1.303,0.919,0.414,0.723,0.687,�k,1.9,��
2019/11/17,21:30,0.728,1.052,0.693,1.303,0.922,0.413,0.723,0.684,�k,0.7,��
2019/11/17,21:40,0.728,1.052,0.692,1.301,0.920,0.415,0.723,0.685,�k,0.7,��
2019/11/17,21:50,0.728,1.052,0.692,1.300,0.918,0.413,0.724,0.684,�k,1.4,��
2019/11/17,22:00,0.726,1.053,0.692,1.303,0.919,0.413,0.724,0.685,�k�k��,1.6,��
2019/11/17,22:10,0.726,1.051,0.692,1.304,0.921,0.414,0.723,0.683,�k�k��,0.9,��
2019/11/17,22:20,0.726,1.054,0.694,1.300,0.921,0.413,0.724,0.684,�k,0.8,��
2019/11/17,22:30,0.728,1.051,0.692,1.300,0.918,0.413,0.724,0.685,�k,1.9,��
2019/11/17,22:40,0.728,1.052,0.692,1.303,0.920,0.413,0.723,0.685,�k,2.9,��
2019/11/17,22:50,0.726,1.052,0.693,1.300,0.921,0.412,0.723,0.684,�k,2.5,��
2019/11/17,23:00,0.729,1.054,0.692,1.303,0.922,0.413,0.723,0.683,�k�k��,2.3,��
2019/11/17,23:10,0.727,1.053,0.693,1.304,0.919,0.413,0.723,0.684,��,1.3,��
2019/11/17,23:20,0.727,1.053,0.693,1.304,0.919,0.414,0.724,0.685,��,1.4,��
2019/11/17,23:30,0.728,1.051,0.693,1.302,0.919,0.415,0.722,0.685,�쐼,1.6,��
2019/11/17,23:40,0.726,1.052,0.693,1.303,0.920,0.413,0.724,0.684,��쐼,2.1,��
2019/11/17,23:50,0.726,1.053,0.693,1.303,0.919,0.413,0.723,0.684,��쐼,0.9,��
